Weather History for Willimantic, CT

Change the Weather History Date:

Wednesday, September 11, 2013

  Actual Average Record
Temperature  
Mean Temperature 78 °F -  
Max Temperature 91 °F 76 °F 92 °F (1983)
Min Temperature 64 °F 50 °F 35 °F (1956)
Cooling Degree Days 12    
Growing Degree Days 28 (Base 50)    
Moisture  
Dew Point 68 °F    
Average Humidity 88    
Maximum Humidity 100    
Minimum Humidity 54    
Precipitation  
Precipitation 0.00 in - - ()
Sea Level Pressure  
Sea Level Pressure 30.07 in    
Wind  
Wind Speed 1 mph (SSW)    
Max Wind Speed 12 mph    
Max Gust Speed 17 mph    
Visibility 4 miles    
Events Fog    
Averages and records for this station are not official NWS values.
T = Trace of Precipitation, MM = Missing Value Source: NWS Daily Summary

Daily Weather History Graph

Daily Weather History Graph

Search for Another Location

Airport:

Trip Planner

Search our weather history database for the weather conditions in past years. The results will help you decide how hot, cold, wet, or windy it might be!

Date:

Astronomy

Sep. 11, 2013 Rise Set
Actual Time 6:25 AM EDT 7:04 PM EDT
Civil Twilight 5:56 AM EDT 7:32 PM EDT
Nautical Twilight 5:23 AM EDT 8:05 PM EDT
Astronomical Twilight 4:49 AM EDT 8:40 PM EDT
Moon 12:55 PM EDT (9/11) 10:52 PM EDT (9/11)
Length of Visible Light 13h 35m
Length of Day
12h 39m
Waxing Crescent, 38% of the Moon is Illuminated
Sep 11
Waxing Crescent
Sep 12
First Quarter
Sep 19
Full
Sep 26
Last Quarter
Oct 4
New

Hourly Weather History & Observations

Time (EDT) Temp. Heat Index Dew Point Humidity Pressure Visibility Wind Dir Wind Speed Gust Speed Precip Events Conditions
12:01 AM 68.0 °F - 66.2 °F 94% 30.10 in 3.0 mi Calm Calm - N/A   Mostly Cloudy
12:11 AM 68.0 °F - 66.2 °F 94% 30.10 in 2.5 mi Calm Calm - N/A   Mostly Cloudy
12:33 AM 68.0 °F - 66.2 °F 94% 30.10 in 1.8 mi Calm Calm - N/A   Overcast
12:41 AM 68.0 °F - 66.2 °F 94% 30.10 in 2.5 mi Calm Calm - N/A   Overcast
12:52 AM 68.0 °F - 66.9 °F 96% 30.10 in 2.0 mi Calm Calm - N/A   Overcast
12:59 AM 66.2 °F - 66.2 °F 100% 30.10 in 0.8 mi Calm Calm - N/A   Overcast
1:08 AM 66.2 °F - 66.2 °F 100% 30.10 in 1.0 mi Calm Calm - N/A   Overcast
1:20 AM 66.2 °F - 66.2 °F 100% 30.10 in 0.8 mi Calm Calm - N/A   Mist
1:44 AM 66.2 °F - 66.2 °F 100% 30.09 in 1.8 mi Calm Calm - N/A   Overcast
1:47 AM 66.2 °F - 66.2 °F 100% 30.09 in 3.0 mi Calm Calm - N/A   Overcast
1:52 AM 66.9 °F - 66.0 °F 97% 30.09 in 2.5 mi Calm Calm - N/A   Overcast
2:23 AM 66.2 °F - 64.4 °F 94% 30.08 in 0.8 mi Calm Calm - N/A   Mist
2:39 AM 66.2 °F - 64.4 °F 94% 30.09 in 2.5 mi Calm Calm - N/A   Mostly Cloudy
2:52 AM 64.9 °F - 64.0 °F 97% 30.08 in 1.0 mi Calm Calm - N/A   Mist
2:59 AM 66.2 °F - 64.4 °F 94% 30.08 in 0.5 mi Calm Calm - N/A Fog Fog
3:28 AM 64.4 °F - 64.4 °F 100% 30.08 in 1.0 mi Calm Calm - N/A   Overcast
3:32 AM 64.4 °F - 64.4 °F 100% 30.08 in 4.0 mi Calm Calm - N/A   Overcast
3:52 AM 66.0 °F - 64.0 °F 93% 30.08 in 4.0 mi Calm Calm - N/A   Mostly Cloudy
3:57 AM 66.2 °F - 64.4 °F 94% 30.08 in 1.8 mi Calm Calm - N/A   Mostly Cloudy
4:11 AM 66.2 °F - 64.4 °F 94% 30.08 in 3.0 mi Calm Calm - N/A   Mostly Cloudy
4:18 AM 66.2 °F - 64.4 °F 94% 30.08 in 4.0 mi Calm Calm - N/A   Overcast
4:30 AM 64.4 °F - 64.4 °F 100% 30.08 in 5.0 mi Calm Calm - N/A   Overcast
4:52 AM 66.0 °F - 64.9 °F 96% 30.07 in 4.0 mi Calm Calm - N/A   Overcast
5:23 AM 66.2 °F - 64.4 °F 94% 30.08 in 1.8 mi Calm Calm - N/A   Overcast
5:33 AM 64.4 °F - 64.4 °F 100% 30.08 in 0.5 mi Calm Calm - N/A Fog Fog
5:48 AM 64.4 °F - 64.4 °F 100% 30.08 in 0.2 mi Calm Calm - N/A Fog Fog
5:52 AM 64.9 °F - 64.0 °F 97% 30.08 in 0.2 mi Calm Calm - N/A Fog Fog
6:52 AM 64.9 °F - 64.0 °F 97% 30.09 in 0.2 mi Calm Calm - N/A Fog Fog
7:52 AM 66.0 °F - 64.9 °F 96% 30.11 in 0.2 mi Calm Calm - N/A Fog Fog
8:11 AM 66.2 °F - 66.2 °F 100% 30.11 in 0.5 mi Calm Calm - N/A Fog Fog
8:30 AM 68.0 °F - 66.2 °F 94% 30.11 in 1.8 mi Calm Calm - N/A   Mostly Cloudy
8:38 AM 69.8 °F - 68.0 °F 94% 30.11 in 2.5 mi Calm Calm - N/A   Mostly Cloudy
8:45 AM 69.8 °F - 69.8 °F 100% 30.11 in 3.0 mi Calm Calm - N/A   Scattered Clouds
8:52 AM 70.0 °F - 69.1 °F 97% 30.11 in 4.0 mi Calm Calm - N/A   Partly Cloudy
9:52 AM 78.1 °F - 72.0 °F 81% 30.11 in 5.0 mi South 3.5 mph - N/A   Haze
10:52 AM 82.9 °F 88.8 °F 73.0 °F 72% 30.10 in 6.0 mi South 5.8 mph - N/A   Haze
11:52 AM 86.0 °F 93.8 °F 73.9 °F 67% 30.08 in 7.0 mi SSW 5.8 mph - N/A   Clear
12:52 PM 89.1 °F 99.1 °F 75.0 °F 63% 30.06 in 7.0 mi Variable 5.8 mph - N/A   Clear
1:52 PM 91.0 °F 100.4 °F 73.9 °F 57% 30.04 in 8.0 mi South 5.8 mph - N/A   Clear
2:52 PM 91.9 °F 100.7 °F 73.0 °F 54% 30.02 in 9.0 mi South 10.4 mph - N/A   Clear
3:52 PM 91.9 °F 101.3 °F 73.9 °F 55% 30.01 in 8.0 mi SSW 8.1 mph 17.3 mph N/A   Clear
4:52 PM 90.0 °F 100.2 °F 75.0 °F 61% 30.00 in 6.0 mi SW 8.1 mph - N/A   Haze
5:52 PM 86.0 °F 93.8 °F 73.9 °F 67% 29.99 in 6.0 mi South 11.5 mph - N/A   Haze
6:52 PM 82.0 °F 86.7 °F 72.0 °F 71% 30.01 in 7.0 mi SSW 9.2 mph - N/A   Clear
7:52 PM 80.1 °F 83.6 °F 71.1 °F 74% 30.01 in 9.0 mi South 6.9 mph - N/A   Clear
8:52 PM 79.0 °F - 70.0 °F 74% 30.03 in 9.0 mi Calm Calm - N/A   Clear
9:52 PM 77.0 °F - 70.0 °F 79% 30.03 in 8.0 mi Calm Calm - N/A   Scattered Clouds
10:52 PM 77.0 °F - 70.0 °F 79% 30.04 in 9.0 mi Calm Calm - N/A   Partly Cloudy
11:52 PM 73.9 °F - 70.0 °F 87% 30.01 in 7.0 mi Calm Calm - N/A   Clear